カタログに戻る

QIANFAN-227

運用中通信PO
NORAD 69856·PAYLOAD·🇨🇳 China

打ち上げ Jul 5, 2026 から Wenchang Space Launch Site

Loading…

次のパス (今後24時間)

TLE

最新Source: Space-Track

元期: Sep 14, 2026, 21:03 UTC

1 69856U 26155J   26257.87755751 -.01843787  00000-0 -31393+1 0  9999
2 69856  89.0073  54.2926 0038545  27.0925 333.2226 13.49074381  9966

AllMySatでQIANFAN-227をリアルタイム追跡

Download on the App Store